Columbia Falls, MT

3:42 PM MDT on August 23, 2016 (GMT -0600)
Glacier Park International

Weather History for KGPI - June, 2013

Change the Weather History Date:

Friday, June 14, 2013

  Actual Average Record
Temperature  
Mean Temperature 50 °F 58 °F  
Max Temperature 62 °F 71 °F 93 °F (1987)
Min Temperature 38 °F 44 °F 33 °F (1979)
Degree Days  
Heating Degree Days 15 7  
Month to date heating degree days 105 118  
Since 1 June heating degree days 105 118  
Since 1 July heating degree days 7371 7941  
Cooling Degree Days 0 0  
Month to date cooling degree days 0 0  
Year to date cooling degree days 0 3  
Since 1 June cooling degree days 0 0  
Moisture  
Dew Point 41 °F    
Average Humidity 67    
Maximum Humidity 92    
Minimum Humidity 42    
Precipitation  
Precipitation 0.02 in 0.08 in 0.87 in (1973)
Month to date precipitation 0.74 1.24  
Year to date precipitation 7.04 7.85  
Snow  
Snow 0.00 in - - ()
Month to date snowfall 0.0  
Year to date snowfall 10.1  
Since 1 July snowfall 18.9  
Snow Depth 0.00 in    
Sea Level Pressure  
Sea Level Pressure 30.06 in    
Wind  
Wind Speed 6 mph (SW)    
Max Wind Speed 20 mph    
Max Gust Speed 24 mph    
Visibility 10 miles    
Events Rain    
T = Trace of Precipitation, MM = Missing Value Source: NWS Daily Summary

Daily Weather History Graph

Daily Weather History Graph

Search for Another Location

Airport or City:

Trip Planner

Search our weather history database for the weather conditions in past years. The results will help you decide how hot, cold, wet, or windy it might be!

Date:

Astronomy

Jun. 14, 2013 Rise Set
Actual Time 5:35 AM MDT 9:39 PM MDT
Civil Twilight 4:53 AM MDT 10:21 PM MDT
Nautical Twilight 3:55 AM MDT 11:19 PM MDT
Astronomical Twilight 2:11 AM MDT 1:04 AM MDT
Moon 11:38 AM MDT (6/14) 12:25 AM MDT (6/14)
Length of Visible Light 17h 27m
Length of Day
16h 03m
Waxing Crescent, 31% of the Moon is Illuminated
Jun 14
Waxing Crescent
Jun 16
First Quarter
Jun 23
Full
Jun 29
Last Quarter
Jul 8
New

Hourly Weather History & Observations

Time (MDT) Temp. Windchill Dew Point Humidity Pressure Visibility Wind Dir Wind Speed Gust Speed Precip Events Conditions
12:55 AM 43.0 °F 40.3 °F 39.9 °F 89% 30.04 in 10.0 mi WNW 4.6 mph - N/A   Scattered Clouds
1:55 AM 39.0 °F 36.8 °F 37.0 °F 93% 30.04 in 10.0 mi Variable 3.5 mph - N/A   Partly Cloudy
2:55 AM 39.0 °F - 37.0 °F 93% 30.03 in 10.0 mi Calm Calm - N/A   Mostly Cloudy
3:55 AM 42.1 °F - 39.0 °F 89% 30.02 in 10.0 mi Calm Calm - N/A   Overcast
4:55 AM 44.1 °F - 41.0 °F 89% 30.02 in 10.0 mi Calm Calm - N/A   Overcast
5:55 AM 44.1 °F - 41.0 °F 89% 30.04 in 10.0 mi Calm Calm - N/A   Overcast
6:55 AM 45.0 °F - 42.1 °F 90% 30.04 in 10.0 mi Calm Calm - 0.00 in   Overcast
7:55 AM 46.0 °F - 43.0 °F 89% 30.04 in 10.0 mi Calm Calm - N/A   Overcast
8:55 AM 48.9 °F - 44.1 °F 83% 30.05 in 10.0 mi Calm Calm - N/A   Overcast
9:55 AM 54.0 °F - 43.0 °F 66% 30.04 in 10.0 mi South 5.8 mph - N/A   Overcast
10:55 AM 53.1 °F - 44.1 °F 71% 30.05 in 10.0 mi SE 9.2 mph - N/A   Overcast
11:55 AM 53.1 °F - 44.1 °F 71% 30.06 in 10.0 mi SE 5.8 mph - 0.00 in Rain Light Rain
12:55 PM 57.9 °F - 42.1 °F 56% 30.06 in 10.0 mi WSW 6.9 mph 16.1 mph 0.02 in   Overcast
1:55 PM 59.0 °F - 39.9 °F 49% 30.06 in 10.0 mi WSW 11.5 mph - N/A   Overcast
2:55 PM 59.0 °F - 39.9 °F 49% 30.07 in 10.0 mi WSW 12.7 mph - N/A   Overcast
3:55 PM 60.1 °F - 37.9 °F 44% 30.06 in 10.0 mi WSW 13.8 mph 23.0 mph N/A   Overcast
4:55 PM 59.0 °F - 39.0 °F 48% 30.07 in 10.0 mi WSW 9.2 mph - N/A   Overcast
5:55 PM 57.9 °F - 39.9 °F 51% 30.07 in 10.0 mi SW 11.5 mph - N/A   Overcast
6:55 PM 59.0 °F - 39.0 °F 48% 30.07 in 10.0 mi WSW 11.5 mph 24.2 mph N/A   Mostly Cloudy
7:55 PM 57.9 °F - 41.0 °F 53% 30.08 in 10.0 mi WSW 5.8 mph - N/A   Mostly Cloudy
8:55 PM 57.0 °F - 39.9 °F 53% 30.08 in 10.0 mi SW 8.1 mph - N/A   Mostly Cloudy
9:55 PM 53.1 °F - 43.0 °F 69% 30.08 in 10.0 mi SSE 8.1 mph - N/A   Mostly Cloudy
10:55 PM 51.1 °F - 43.0 °F 74% 30.10 in 10.0 mi South 5.8 mph - N/A   Mostly Cloudy
11:55 PM 51.1 °F - 43.0 °F 74% 30.10 in 10.0 mi South 6.9 mph - N/A   Mostly Cloudy